FW0475 Weather Reports


Display with metric or nautical units.
time (UTC)temp
F
wind
direction
speed
MPH
gust
MPH
rain 1hr
in
rain 24hr
in
rain mn
in
humidity
%
barometer
mb
20260906011325 71 59 0.0 1.0 0.00 0.00 0.00 77 1017.9
20260906010833 71 59 0.0 2.0 0.00 0.00 0.00 77 1018.0
20260906010319 71 54 0.0 2.0 0.00 0.00 0.00 77 1017.9
20260906005821 71 52 0.0 2.0 0.00 0.00 0.00 77 1017.9
20260906005323 71 47 0.0 1.0 0.00 0.00 0.00 77 1017.8
20260906004833 72 47 1.0 2.0 0.00 0.00 0.00 77 1017.7
20260906004317 72 360 0.0 2.0 0.00 0.00 0.00 76 1017.7
20260906003818 72 345 0.0 1.0 0.00 0.00 0.00 76 1017.6
20260906003327 72 355 0.0 1.0 0.00 0.00 0.00 76 1017.6
20260906002850 72 30 0.0 1.0 0.00 0.00 0.00 77 1017.4
20260906002337 72 49 0.0 2.0 0.00 0.00 0.00 76 1017.5
20260906001818 73 49 1.0 2.0 0.00 0.00 0.00 76 1017.5
20260906001320 73 24 0.0 2.0 0.00 0.00 0.00 76 1017.6
20260906000829 73 5 0.0 2.0 0.00 0.00 0.00 75 1017.7
20260906000330 74 35 0.0 1.0 0.00 0.00 0.00 75 1017.7
20260905235812 74 34 0.0 3.0 0.00 0.00 0.00 76 1017.6
20260905235314 74 34 1.0 3.0 0.00 0.00 0.00 75 1017.6
20260905234823 74 360 0.0 2.0 0.00 0.00 0.00 75 1017.7
20260905234325 74 17 1.0 2.0 0.00 0.00 0.00 75 1017.7
20260905233833 74 313 0.0 4.0 0.00 0.00 0.00 74 1017.7
20260905233316 74 355 0.0 4.0 0.00 0.00 0.00 75 1017.7
20260905232818 74 23 1.0 5.0 0.00 0.00 0.00 74 1017.8
20260905232320 74 320 1.0 5.0 0.00 0.00 0.00 74 1017.7
20260905231829 74 346 1.0 3.0 0.00 0.00 0.00 74 1017.7
20260905231349 75 319 1.0 3.0 0.00 0.00 0.00 76 1017.8
20260905230836 75 24 1.0 3.0 0.00 0.00 0.00 76 1017.7
20260905230316 75 294 0.0 3.0 0.00 0.00 0.00 76 1017.7
20260905225825 75 349 1.0 4.0 0.00 0.00 0.00 76 1017.6
20260905225327 75 321 1.0 4.0 0.00 0.00 0.00 76 1017.6
20260905224829 76 46 2.0 5.0 0.00 0.00 0.00 75 1017.7
20260905224338 76 327 2.0 5.0 0.00 0.00 0.00 75 1017.7
20260905223840 76 264 2.0 4.0 0.00 0.00 0.00 76 1017.7
20260905223329 76 267 2.0 4.0 0.00 0.00 0.00 77 1017.6
20260905222830 76 279 2.0 4.0 0.00 0.00 0.00 77 1017.6
20260905222312 76 282 1.0 3.0 0.00 0.00 0.00 77 1017.6
20260905221814 76 319 1.0 3.0 0.00 0.00 0.00 77 1017.4
20260905221323 76 360 1.0 3.0 0.00 0.00 0.00 77 1017.4
20260905220824 76 285 1.0 4.0 0.00 0.00 0.00 77 1017.4
20260905220333 76 303 2.0 4.0 0.00 0.00 0.00 77 1017.4
20260905215815 76 301 2.0 4.0 0.00 0.00 0.00 76 1017.4
20260905215317 76 292 2.0 4.0 0.00 0.00 0.00 76 1017.4
20260905214845 76 315 2.0 4.0 0.00 0.00 0.00 76 1017.3
20260905214326 76 311 2.0 3.0 0.00 0.00 0.00 75 1017.3
20260905213833 77 290 2.0 3.0 0.00 0.00 0.00 75 1017.1
20260905213314 77 316 2.0 4.0 0.00 0.00 0.00 74 1017.2
20260905212816 78 280 1.0 4.0 0.00 0.00 0.00 74 1017.1
20260905212346 78 264 2.0 4.0 0.00 0.00 0.00 73 1017.1
20260905211826 78 100 2.0 3.0 0.00 0.00 0.00 73 1017.2
20260905211329 78 293 1.0 3.0 0.00 0.00 0.00 74 1017.3
20260905210837 78 300 2.0 3.0 0.00 0.00 0.00 74 1017.3
20260905210318 78 303 2.0 3.0 0.00 0.00 0.00 73 1017.5
20260905205820 78 306 1.0 3.0 0.00 0.00 0.00 74 1017.6
20260905205329 78 272 2.0 3.0 0.00 0.00 0.00 74 1017.5
20260905204811 78 307 2.0 3.0 0.00 0.00 0.00 75 1017.4
20260905204335 77 277 2.0 3.0 0.00 0.00 0.00 76 1017.4
20260905203822 77 295 2.0 3.0 0.00 0.00 0.00 76 1017.4
20260905203323 77 294 2.0 4.0 0.00 0.00 0.00 74 1017.4
20260905202832 78 269 1.0 4.0 0.00 0.00 0.00 73 1017.3
20260905202333 78 322 1.0 2.0 0.00 0.00 0.00 73 1017.3
20260905201822 78 244 0.0 2.0 0.00 0.00 0.00 72 1017.4
20260905201324 79 245 0.0 2.0 0.00 0.00 0.00 73 1017.3
20260905200813 79 164 0.0 2.0 0.00 0.00 0.00 74 1017.3
20260905200335 79 97 1.0 2.0 0.00 0.00 0.00 72 1017.5
20260905195844 79 92 0.0 2.0 0.00 0.00 0.00 74 1017.4
20260905195323 78 5 1.0 2.0 0.00 0.00 0.00 75 1017.5
20260905194832 77 46 1.0 3.0 0.00 0.00 0.00 75 1017.5
20260905194314 76 307 1.0 3.0 0.00 0.00 0.00 78 1017.7
20260905193815 75 54 1.0 3.0 0.00 0.00 0.00 79 1017.7
20260905193325 74 73 1.0 3.0 0.00 0.00 0.00 78 1017.6
20260905192826 74 53 1.0 3.0 0.00 0.00 0.00 79 1017.7
20260905192357 74 53 1.0 3.0 0.00 0.00 0.00 78 1017.7
20260905191817 74 56 0.0 2.0 0.00 0.00 0.00 78 1017.7
20260905191320 74 23 1.0 4.0 0.00 0.00 0.00 78 1017.7
20260905190828 74 72 1.0 4.0 0.00 0.00 0.00 79 1017.7
20260905190329 74 68 1.0 3.0 0.00 0.00 0.00 78 1017.6
20260905185858 74 76 1.0 4.0 0.00 0.00 0.00 79 1017.7
20260905185318 73 77 1.0 4.0 0.00 0.00 0.00 79 1017.7
20260905184820 73 55 1.0 4.0 0.00 0.00 0.00 80 1017.7
20260905184330 73 68 1.0 3.0 0.00 0.00 0.00 81 1017.7
20260905183811 73 69 0.0 3.0 0.00 0.00 0.00 81 1017.9
20260905183313 73 360 0.0 3.0 0.00 0.00 0.00 81 1018.0
20260905182815 72 309 1.0 3.0 0.00 0.00 0.00 82 1018.0
20260905182324 72 82 1.0 3.0 0.00 0.00 0.00 82 1018.0
20260905181825 72 65 1.0 3.0 0.00 0.00 0.00 82 1018.0
20260905181335 72 53 1.0 2.0 0.00 0.00 0.00 82 1018.2
20260905180816 71 52 1.0 2.0 0.00 0.00 0.00 82 1018.2
20260905180318 71 15 1.0 2.0 0.00 0.00 0.00 82 1018.3
20260905175821 71 22 1.0 2.0 0.00 0.00 0.00 82 1018.2
20260905175329 71 75 1.0 2.0 0.00 0.00 0.00 82 1018.2
20260905174811 71 47 1.0 2.0 0.00 0.00 0.00 82 1018.2
20260905174340 70 12 0.0 2.0 0.00 0.00 0.00 83 1018.2
20260905173821 70 57 1.0 2.0 0.00 0.00 0.00 83 1018.1
20260905173322 70 59 0.0 3.0 0.00 0.00 0.00 84 1018.0
20260905172831 70 69 0.0 3.0 0.00 0.00 0.00 83 1017.9
20260905172314 70 60 1.0 2.0 0.00 0.00 0.00 84 1018.0
20260905171816 70 360 1.0 3.0 0.00 0.00 0.00 83 1018.0
20260905171346 70 71 1.0 3.0 0.00 0.00 0.00 84 1018.0
20260905170825 70 55 0.0 2.0 0.00 0.00 0.00 84 1018.0
20260905170334 69 61 1.0 2.0 0.00 0.00 0.00 84 1018.1
20260905165815 69 70 1.0 3.0 0.00 0.00 0.00 84 1018.1
20260905165325 69 76 1.0 3.0 0.00 0.00 0.00 84 1018.1
20260905164825 69 78 1.0 3.0 0.00 0.00 0.00 84 1018.1
20260905164329 69 79 1.0 3.0 0.00 0.00 0.00 84 1018.1
20260905163833 69 360 1.0 3.0 0.00 0.00 0.00 84 1018.1
20260905163315 69 360 0.0 2.0 0.00 0.00 0.00 84 1018.1
20260905162817 69 257 1.0 2.0 0.00 0.00 0.00 84 1018.1
20260905162327 69 360 0.0 2.0 0.00 0.00 0.00 84 1018.0
20260905161828 69 330 0.0 2.0 0.00 0.00 0.00 84 1017.8
20260905161330 69 360 0.0 2.0 0.00 0.00 0.00 84 1017.8
20260905160811 69 329 1.0 3.0 0.00 0.01 0.00 84 1017.7
20260905160319 69 69 1.0 3.0 0.00 0.01 0.00 84 1017.7
20260905155821 69 72 1.0 3.0 0.00 0.01 0.00 84 1017.8
20260905155351 69 72 1.0 3.0 0.00 0.01 0.00 84 1017.7
20260905154812 69 75 1.0 3.0 0.00 0.01 0.00 85 1017.6
20260905154314 69 68 1.0 2.0 0.00 0.01 0.00 85 1017.7
20260905153823 69 68 1.0 2.0 0.00 0.01 0.00 84 1017.7
20260905153325 68 68 1.0 3.0 0.00 0.01 0.00 85 1017.6
20260905152826 68 76 1.0 3.0 0.00 0.01 0.00 85 1017.6
20260905152335 68 68 1.0 3.0 0.00 0.01 0.00 85 1017.5
20260905151837 68 71 1.0 136.0 0.00 0.01 0.00 85 1017.4
20260905151346 68 76 1.0 136.0 0.00 0.01 0.00 85 1017.5
20260905150825 67 68 1.0 137.0 0.00 0.01 0.00 84 1017.4
20260905150334 67 48 11.0 137.0 0.00 0.01 0.00 84 1017.4
20260905145816 67 82 136.0 137.0 0.00 0.01 0.00 84 1017.5
20260905145318 67 67 136.0 137.0 0.00 0.01 0.00 84 1017.4
20260905144827 67 71 136.0 137.0 0.00 0.01 0.00 84 1017.3
20260905144329 67 74 137.0 137.0 0.00 0.01 0.00 84 1017.4
20260905143829 67 69 136.0 136.0 0.00 0.01 0.00 84 1017.4
20260905143311 67 71 136.0 137.0 0.00 0.01 0.00 84 1017.5
20260905142819 67 71 136.0 137.0 0.00 0.01 0.00 84 1017.3
20260905142321 67 339 136.0 137.0 0.00 0.01 0.00 84 1017.3
20260905141831 67 67 136.0 137.0 0.00 0.01 0.00 84 1017.2
20260905141313 67 75 137.0 137.0 0.00 0.01 0.00 84 1017.2
20260905140814 67 75 136.0 137.0 0.00 0.01 0.00 83 1017.1
20260905140316 67 69 136.0 136.0 0.00 0.01 0.00 83 1017.1
20260905135825 67 76 136.0 137.0 0.00 0.01 0.00 83 1017.2
20260905135326 67 76 137.0 136.0 0.00 0.01 0.00 83 1017.1
20260905134835 67 76 58.0 137.0 0.00 0.01 0.00 82 1017.0
20260905134317 68 71 1.0 2.0 0.00 0.01 0.00 82 1016.9
20260905133819 68 75 1.0 3.0 0.00 0.01 0.00 81 1017.0
20260905133321 68 76 1.0 3.0 0.00 0.01 0.00 81 1017.0
20260905132829 68 55 1.0 2.0 0.00 0.01 0.00 81 1017.1
20260905132310 69 57 0.0 3.0 0.00 0.01 0.00 81 1017.0
20260905131840 69 360 1.0 3.0 0.00 0.01 0.00 81 1016.9
20260905131341 69 70 1.0 3.0 0.00 0.01 0.00 81 1017.0
20260905130827 69 346 0.0 2.0 0.00 0.07 0.00 81 1016.8
20260905130329 69 40 1.0 2.0 0.00 0.07 0.00 81 1016.6
20260905125811 69 63 1.0 2.0 0.00 0.07 0.00 82 1016.6
20260905125320 69 46 0.0 3.0 0.00 0.07 0.00 82 1016.4
20260905124821 69 67 1.0 3.0 0.00 0.07 0.00 82 1016.4
20260905124324 69 79 1.0 3.0 0.00 0.07 0.00 82 1016.3
20260905123833 69 69 1.0 3.0 0.00 0.07 0.00 83 1016.4
20260905123314 69 78 1.0 3.0 0.00 0.07 0.00 83 1016.5
20260905122816 69 68 2.0 3.0 0.00 0.07 0.00 83 1016.4
20260905122318 69 72 1.0 3.0 0.00 0.07 0.00 83 1016.4
20260905121826 69 73 0.0 2.0 0.00 0.07 0.00 83 1016.3
20260905121329 69 75 1.0 3.0 0.00 0.07 0.00 83 1016.1
20260905120837 69 74 1.0 3.0 0.00 0.17 0.00 84 1016.1
20260905120318 69 75 1.0 3.0 0.00 0.17 0.00 84 1016.1
20260905115820 69 69 1.0 2.0 0.00 0.17 0.00 84 1016.0
20260905115322 69 74 1.0 2.0 0.00 0.17 0.00 84 1015.9
20260905114811 69 73 1.0 2.0 0.00 0.17 0.00 84 1016.0
20260905114333 69 69 1.0 3.0 0.00 0.17 0.00 84 1015.9
20260905113821 69 65 0.0 3.0 0.00 0.17 0.00 84 1015.7
20260905113323 69 75 1.0 3.0 0.00 0.17 0.00 84 1015.6
20260905112824 70 76 1.0 3.0 0.00 0.17 0.00 84 1015.6
20260905112333 70 74 1.0 3.0 0.00 0.17 0.00 84 1015.6
20260905111814 70 73 1.0 3.0 0.00 0.17 0.00 84 1015.6
20260905111316 70 76 1.0 2.0 0.00 0.17 0.00 84 1015.5
20260905110824 70 72 1.0 2.0 0.00 0.26 0.00 84 1015.6
20260905110326 70 72 1.0 2.0 0.00 0.26 0.00 84 1015.4
20260905105812 70 72 1.0 2.0 0.00 0.26 0.00 84 1015.4
20260905105320 70 71 1.0 3.0 0.00 0.26 0.00 84 1015.5
20260905104822 70 70 1.0 3.0 0.00 0.26 0.00 84 1015.5
20260905104325 70 74 1.0 3.0 0.00 0.26 0.00 84 1015.6
20260905103833 70 71 0.0 2.0 0.00 0.26 0.00 84 1015.6
20260905103315 70 71 1.0 2.0 0.00 0.26 0.00 84 1015.7
20260905102816 70 73 0.0 1.0 0.00 0.26 0.00 84 1015.8
20260905102345 70 73 0.0 2.0 0.00 0.26 0.00 84 1015.7
20260905101825 70 73 1.0 2.0 0.00 0.26 0.00 84 1015.6
20260905101335 70 73 1.0 2.0 0.00 0.26 0.00 84 1015.6
20260905100836 70 71 1.0 2.0 0.00 0.31 0.00 84 1015.6
20260905100317 70 75 1.0 2.0 0.00 0.31 0.00 84 1015.6
20260905095825 70 74 1.0 2.0 0.00 0.31 0.00 84 1015.5
20260905095327 70 69 1.0 2.0 0.00 0.31 0.00 84 1015.5
20260905094836 70 67 1.0 2.0 0.00 0.31 0.00 84 1015.5
20260905094319 70 70 1.0 2.0 0.00 0.31 0.00 84 1015.5
20260905093821 70 72 0.0 3.0 0.00 0.31 0.00 85 1015.6
20260905093323 70 73 1.0 3.0 0.00 0.31 0.00 85 1015.5
20260905092832 70 72 1.0 2.0 0.00 0.31 0.00 85 1015.4
20260905092315 70 67 1.0 2.0 0.00 0.31 0.00 85 1015.3
20260905091817 70 70 1.0 2.0 0.00 0.31 0.00 85 1015.3
20260905091347 71 76 0.0 2.0 0.00 0.31 0.00 85 1015.1
20260905090827 70 76 1.0 2.0 0.00 0.32 0.00 85 1015.1
20260905090336 70 72 1.0 2.0 0.00 0.32 0.00 85 1015.2
20260905085818 71 69 1.0 4.0 0.00 0.32 0.00 85 1015.1
20260905085347 70 69 1.0 4.0 0.00 0.32 0.00 85 1015.1
20260905084848 71 71 1.0 4.0 0.00 0.32 0.00 85 1015.0
20260905084337 71 67 1.0 4.0 0.00 0.32 0.00 84 1015.0
20260905083817 71 68 1.0 4.0 0.00 0.32 0.00 84 1014.9
20260905083319 71 74 1.0 3.0 0.00 0.32 0.00 84 1014.9
20260905082828 71 77 1.0 3.0 0.00 0.32 0.00 84 1014.8
20260905082329 71 75 1.0 3.0 0.00 0.32 0.00 85 1014.8
20260905081831 71 76 2.0 3.0 0.00 0.32 0.00 85 1014.8
20260905081314 71 74 1.0 3.0 0.00 0.32 0.00 85 1014.8
20260905080822 71 75 1.0 59.0 0.00 0.32 0.00 85 1014.8
20260905080323 71 71 1.0 59.0 0.00 0.32 0.00 84 1014.8
20260905075835 72 71 1.0 3.0 0.00 0.32 0.00 84 1014.9
20260905075315 72 65 0.0 4.0 0.00 0.32 0.00 84 1015.1
20260905074843 72 71 2.0 4.0 0.00 0.32 0.00 84 1015.1
20260905074325 72 65 1.0 3.0 0.00 0.32 0.00 84 1015.3
20260905073823 72 67 1.0 135.0 0.00 0.32 0.00 84 1015.4
20260905073332 72 63 0.0 135.0 0.00 0.32 0.00 84 1015.4
20260905072812 72 51 134.0 135.0 0.00 0.32 0.00 84 1015.5
20260905072314 72 53 3.0 104.0 0.00 0.32 0.00 84 1015.5
20260905071823 72 38 0.0 3.0 0.00 0.32 0.00 84 1015.6
20260905071326 72 35 1.0 3.0 0.00 0.32 0.00 84 1015.5
20260905070827 72 36 1.0 2.0 0.00 0.32 0.00 84 1015.4
20260905070336 72 30 0.0 3.0 0.00 0.32 0.00 84 1015.4
20260905065817 72 30 1.0 3.0 0.00 0.32 0.00 84 1015.4
20260905065346 73 351 0.0 2.0 0.00 0.32 0.00 84 1015.4
20260905064827 73 344 1.0 2.0 0.00 0.32 0.00 84 1015.4
20260905064329 73 321 0.0 0.0 0.00 0.32 0.00 84 1015.6
20260905063837 72 360 0.0 1.0 0.00 0.32 0.00 84 1015.4
20260905063319 72 320 0.0 2.0 0.00 0.32 0.00 84 1015.4
20260905062847 72 360 0.0 2.0 0.00 0.32 0.00 84 1015.4
20260905062328 72 321 0.0 1.0 0.00 0.32 0.00 84 1015.3
20260905061830 72 324 0.0 2.0 0.00 0.32 0.00 84 1015.2
20260905061313 72 323 0.0 2.0 0.00 0.32 0.00 84 1015.2
20260905060821 72 40 0.0 1.0 0.00 0.32 0.00 84 1015.3
20260905060323 72 40 0.0 2.0 0.00 0.32 0.00 84 1015.4
20260905055852 72 49 0.0 2.0 0.00 0.32 0.00 84 1015.2
20260905055333 72 49 0.0 2.0 0.00 0.32 0.00 84 1015.0
20260905054821 73 78 0.0 1.0 0.00 0.32 0.00 84 1014.9
20260905054324 73 78 0.0 2.0 0.00 0.32 0.00 84 1015.1
20260905053834 73 79 0.0 2.0 0.00 0.32 0.00 84 1015.1
20260905053313 73 79 0.0 2.0 0.00 0.32 0.00 84 1015.2
20260905052815 73 79 1.0 2.0 0.00 0.32 0.00 84 1015.2
20260905052324 73 77 0.0 1.0 0.00 0.32 0.00 84 1015.3
20260905051826 73 86 0.0 1.0 0.00 0.32 0.00 84 1015.1
20260905051356 73 86 0.0 1.0 0.00 0.32 0.00 84 1014.9
20260905050816 73 86 0.0 1.0 0.00 0.32 0.00 84 1015.0
20260905050318 73 86 0.0 1.0 0.00 0.32 0.00 84 1014.9
20260905045827 73 84 0.0 1.0 0.00 0.32 0.00 84 1015.0
20260905045329 73 84 1.0 1.0 0.00 0.32 0.00 84 1015.0
20260905044830 73 86 0.0 1.0 0.00 0.32 0.00 84 1014.9
20260905044314 73 84 0.0 2.0 0.00 0.32 0.00 84 1014.9
20260905043823 73 86 1.0 2.0 0.00 0.32 0.00 84 1015.0
20260905043350 73 86 0.0 0.0 0.00 0.32 0.00 84 1015.2
20260905042831 73 84 0.0 1.0 0.00 0.32 0.00 84 1015.3
20260905042313 73 87 0.0 1.0 0.00 0.32 0.00 84 1015.2
20260905041843 73 86 0.0 1.0 0.00 0.32 0.00 84 1015.2
20260905041344 73 86 0.0 1.0 0.00 0.32 0.00 84 1015.0
20260905040833 73 86 0.0 1.0 0.00 0.32 0.32 84 1015.0
20260905040314 73 86 0.0 1.0 0.00 0.32 0.32 84 1014.9
20260905035844 73 84 0.0 1.0 0.00 0.32 0.32 84 1015.1
20260905035326 73 84 0.0 1.0 0.00 0.32 0.32 84 1015.2
20260905034835 73 84 1.0 1.0 0.00 0.32 0.32 84 1015.3
20260905034337 73 85 0.0 1.0 0.00 0.32 0.32 84 1015.3
20260905033841 73 84 0.0 1.0 0.00 0.32 0.32 84 1015.4
20260905033322 73 84 0.0 1.0 0.00 0.32 0.32 84 1015.5
20260905032851 73 85 0.0 1.0 0.00 0.32 0.32 84 1015.6
20260905032312 73 86 0.0 1.0 0.00 0.32 0.32 84 1015.6
20260905031821 73 86 0.0 1.0 0.00 0.32 0.32 84 1015.6
20260905031323 73 85 0.0 1.0 0.00 0.32 0.32 84 1015.6
20260905030831 73 84 0.0 2.0 0.00 0.32 0.32 84 1015.6
20260905030313 73 86 0.0 3.0 0.00 0.32 0.32 84 1015.6
20260905025815 73 85 1.0 3.0 0.00 0.32 0.32 84 1015.6
20260905025314 73 96 0.0 1.0 0.00 0.32 0.32 84 1015.6
20260905024844 73 95 0.0 1.0 0.00 0.32 0.32 84 1015.6
20260905024332 73 96 0.0 1.0 0.00 0.32 0.32 84 1015.8
20260905023813 73 95 0.0 1.0 0.00 0.32 0.32 84 1015.8
20260905023315 73 97 0.0 2.0 0.00 0.32 0.32 84 1016.0
20260905022817 73 98 1.0 2.0 0.00 0.32 0.32 84 1015.9
20260905022323 73 95 0.0 1.0 0.00 0.32 0.32 84 1016.0
20260905021825 73 96 0.0 1.0 0.00 0.32 0.32 84 1016.1
20260905021334 73 96 0.0 1.0 0.00 0.32 0.32 84 1016.1
20260905020819 73 95 0.0 1.0 0.00 0.32 0.32 84 1016.1
20260905020338 73 95 0.0 1.0 0.00 0.32 0.32 84 1015.9
20260905015846 73 95 0.0 1.0 0.00 0.32 0.32 84 1015.9
20260905015326 73 95 0.0 2.0 0.00 0.32 0.32 84 1016.1
20260905014835 73 98 1.0 2.0 0.00 0.32 0.32 84 1015.9
20260905014319 73 95 0.0 2.0 0.00 0.32 0.32 84 1016.0
20260905013820 73 95 1.0 1.0 0.00 0.32 0.32 84 1015.9
20260905013329 73 96 0.0 2.0 0.00 0.32 0.32 84 1016.0
20260905012852 73 97 1.0 2.0 0.00 0.32 0.32 84 1015.9
20260905012312 74 96 0.0 2.0 0.00 0.32 0.32 84 1015.8
20260905011842 74 95 0.0 1.0 0.00 0.32 0.32 84 1015.9